Preise (Charter):

Flugzeuge Normalpreis ab 12 h/Jahr -5% ab 20 h/Jahr -8%

Cessna 172 SP

D-ETTU

234,00 € 222,30 € 215,28 €

Mooney Ovation 2 GX 

D-ETTB

 379,00 €  360,05 € 349,68 € 

Reservierungen können Sie über unser Buchungssystem vornehmen.

Neben unseren Flugzeugen können wir über unser Netzwerk weitere Flugzeuge vermitteln.

Für weitere Informationen füllen Sie bitte das Kontaktformular aus oder wenden sich direkt an:

Christian Sabionski

Tel.:   +49 (0)172 8140311

Flugwetter Augsburg

[source: ADDS]
METAR
EDMA 192250Z AUTO 25003KT 210V280 9999 // FEW062/// BKN160/// 12/11 Q1003 =
TAF EDMA 191700Z 1918/2003 29005KT CAVOK PROB30 TEMPO 1918/1921 TSRA BKN030CB BECMG 2000/2003 BKN008
TAF
TAF EDMA 191700Z 1918/2003 29005KT CAVOK PROB30 TEMPO 1918/1921 TSRA BKN030CB BECMG 2000/2003 BKN008 =
Cookies erleichtern die Bereitstellung unserer Dienste. Mit der Nutzung unserer Dienste erklären Sie sich damit einverstanden, dass wir Cookies verwenden.
Weitere Informationen Ok